STARLINK-1807, 46706

Orbit data source: Space-Track

STARLINK-1807, 46706 is a payload satellite owned by SpaceX/Seattle (US) in LEO that was launched on Sun, 18 Oct 2020 UTC via an FALCON 9 launch vehicle from the Air Force Eastern Test Range (AFETR). Payload-class satellites include a variety of spacecraft equipped with specific instruments for various scientific and technological missions. These include communications satellites like Starlink; space stations such as the ISS; scientific satellites like the Hubble; Earth observation satellites from companies like Planet Labs, Umbra, and HawkEye 360; GPS; miniature CubeSats for education and research; and military/defense satellites.

Loading next visibility...
Identifier
46706, 2020-073AN
Orbit
LEO
Country
Flag of USUS
Related business
Manufacturer
SpaceX/Seattle
Mission
Partially operational Commercial Communications
Bus & Motor
STARLINK, Unknown motor
Mass
260 kg wet, ~248 kg dry
Launch date (UTC)
2020-10-18 (5 years ago)
Launch vehicle
FALCON 9
Launch site
Air Force Eastern Test Range (AFETR)
Object type
Payload
Rocket body
Debris
Shape & HBR
Box + 1 Pan, 10.1 m
Radar Cross Section
13.562 m², Large (>1 m²)

Expand to show TLE details & history
Last TLE update: 18 hours ago

TLE from 18 hours ago
0 STARLINK-1807
1 46706U 20073AN  25349.14981336  .00009900  00000-0  51271-3 0  9990
2 46706  53.0480 255.9066 0002275  39.4596 320.6562 15.16809839284468
Epoch: 2025-12-15T03:35Z
TLE epoch observation values (Epoch: 2025-12-15T03:35:43.874Z)
Latitude
-0.00008°
Longitude
117.92122°
Altitude
515.159 km
Speed
7.608 km/s
True Right ascension
17h 03m 37s
True Declination
0° 00' 00"
Sunlit
Object was in daylight at epoch
Visualization orbit readout
Latitude
Unknown
Longitude
Unknown
Altitude
Unknown
Speed
Unknown
Apparent Right ascension
Unknown
Apparent Declination
Unknown
Sunlit
N/A
Visualization observer readout
Local Sidereal Time
20:30:26
Azimuth
Unknown
Elevation
Unknown
Doppler factor
Unknown
Orbital elements
Apogee altitude
517.331 km
Perigee altitude
514.194 km
Semi-major axis
6,893.899 km
Eccentricity
0.00023
Inclination
53.048°
RAAN
255.9066°
Arg. of periapsis
39.4596°
True anomaly
320.63967°
Mean anomaly
320.6562°
Eccentric anomaly
320.64793°
Mean motion
3.7918 °/min
Orbital period
94.94 mins
BSTAR
0.00051271
Loading maneuver chart data...
Computing Atmospheric mass density...

Documentation

Showing up to 5 results
|